User: anonymous   Login
Location: Cambridge
(43.3830°N, 80.3170°W)
Time: 05:45:02
(UTC-04:00)
Language:

Tiangong 2 - Orbit

View from above orbital plane
View from above orbital plane
View from above satellite
View from above satellite

Ground track
Ground track

The orbit data is extracted from the following two-line orbital elements,

1 41765U 16057A   19115.20896991  .00003914  00000-0  49135-4 0  9996
2 41765  42.7825 282.8826 0008799 263.3493  78.4225 15.61324531148756
Epoch (UTC): 25 April 2019 05:00:55
Eccentricity: 0.0008799
inclination: 42.7825°
perigee height: 378 km
apogee height: 390 km
right ascension of ascending node: 282.8826°
argument of perigee: 263.3493°
revolutions per day: 15.61324531
mean anomaly at epoch: 78.4225°
orbit number at epoch: 14875

The dashed part of the orbit path shows where the satellite is in the earth's shadow,  

DLR